Location: Bainbridge
(30.9040°N, 84.5757°W)
Time: 19:05:00
(UTC+00:00)

ACS3 Solar Sail - Visible Passes

Search period start: 06 October 2024 00:00
Search period end: 16 October 2024 00:00
Orbit: 961 x 1037 km, 97.4° (Epoch: 06 October)

Date Brightness Start Highest point End Pass type
(mag) Time Alt. Az. Time Alt. Az. Time Alt. Az.
06 Oct 2.4 01:17:38 41° NE 01:17:38 41° NE 01:22:23 10° N visible
06 Oct 4.2 03:02:48 18° WNW 03:02:48 18° WNW 03:05:09 10° NW visible
07 Oct 3.6 00:04:49 11° ENE 00:05:04 11° ENE 00:06:34 10° NE visible
07 Oct 2.5 01:49:59 49° N 01:49:59 49° N 01:54:28 10° N visible
08 Oct 3.1 00:37:09 22° ENE 00:37:09 22° ENE 00:41:08 10° NNE visible
08 Oct 3.2 02:22:19 34° NW 02:22:19 34° NW 02:26:04 10° NNW visible
09 Oct 2.6 01:09:29 36° NE 01:09:29 36° NE 01:13:52 10° N visible
09 Oct 4.1 02:54:39 19° WNW 02:54:39 19° WNW 02:57:00 10° NW visible
10 Oct 2.5 01:41:48 45° N 01:41:48 45° N 01:46:01 10° N visible
11 Oct 3.2 00:28:56 19° ENE 00:28:56 19° ENE 00:32:23 10° NNE visible
11 Oct 3.2 02:14:06 33° NW 02:14:06 33° NW 02:17:40 10° NNW visible
12 Oct 2.7 01:01:13 32° NE 01:01:13 32° NE 01:05:15 10° N visible
12 Oct 4.0 02:46:23 20° NW 02:46:23 20° NW 02:48:42 10° NW visible
13 Oct 2.6 01:33:30 40° N 01:33:30 40° N 01:37:26 10° N visible
14 Oct 3.3 00:20:37 17° NE 00:20:37 17° NE 00:23:26 10° NNE visible
14 Oct 3.2 02:05:46 33° NNW 02:05:46 33° NNW 02:09:08 10° NNW visible
15 Oct 2.9 00:52:51 28° NE 00:52:51 28° NE 00:56:27 10° N visible
15 Oct 4.0 02:38:01 20° NW 02:38:01 20° NW 02:40:16 10° NW visible
